Location: Ehrke Reservoir
(40.0279°N, 99.6641°W)
Time: 00:15:10
(UTC+00:00)

Cosmos 2154 Rocket - Pass Details

Date: 20 January 2020
Orbit: 965 x 997 km, 82.9° (Epoch: 23 February)

Event Time Altitude Azimuth Distance (km) Brightness Sun altitude
Rises 11:28:51 0° 355° (N) 3,666 6.9 -28.0°
Reaches altitude 10° 11:31:23 10° 357° (N) 2,713 6.2 -27.5°
Maximum altitude 11:37:34 70° 81° (E) 1,025 4.2 -26.4°
Drops below altitude 10° 11:43:43 10° 165° (SSE) 2,697 6.5 -25.2°
Sets 11:46:14 0° 168° (SSE) 3,642 7.2 -24.7°
